Location: Alexandria
(38.8050°N, 77.0470°W)
Time: 08:32:39
(UTC-04:00)

Envisat - Pass Details

Date: 09 March 2018
Orbit: 764 x 766 km, 98.2° (Epoch: 21 June)

Event Time Altitude Azimuth Distance (km) Brightness Sun altitude
Rises 20:38:02 0° 200° (SSW) 3,215 6.2 -29.3°
Reaches altitude 10° 20:40:48 10° 216° (SW) 2,294 5.6 -29.8°
Maximum altitude 20:44:42 22° 266° (W) 1,618 5.2 -30.5°
Drops below altitude 10° 20:48:37 10° 317° (NW) 2,306 6.2 -31.3°
Sets 20:51:25 0° 332° (NNW) 3,237 6.9 -31.8°
